RH
48 50 51 52 55 61 64 69 74 83 87 85 79 75 65 62 58 59 61 64 65 63 61 57 55 54 52 46 44 40 35 31 32 31 30 29 32 39 37 34 32 31 28
52 56 58 56 58 63 66 70 72 68 64 60 60 63 64 66 70 70 69 68 69 68 66 62 59 54 50 45 39 33 29 29 33 35 31 28 29 32 47 42 39 35 28
50 51 54 58 62 65 66 68 67 63 60 61 63 69 71 71 75 78 77 74 71 67 62 56 51 46 39 34 31 30 30 31 31 36 36 36 33 35 31 39 41 39 35
48 53 55 59 59 58 57 57 61 63 61 64 68 71 74 80 81 80 75 76 70 61 55 49 41 36 33 33 33 34 33 33 33 32 36 42 44 41 36 38 37 40 41
55 54 55 55 57 57 58 60 63 62 64 66 69 70 75 78 81 79 78 72 66 56 46 39 36 37 37 38 37 37 38 37 40 43 44 50 49 52 53 48 45 49 50
53 54 53 53 56 58 61 62 62 63 64 67 69 73 77 78 77 76 72 67 60 51 44 40 40 40 41 41 43 43 42 45 51 55 58 63 65 66 68 69 69 68 55
51 51 53 56 61 62 60 60 63 66 67 69 70 74 72 70 72 73 68 59 53 48 50 50 52 51 48 46 51 56 53 51 57 63 61 62 64 63 66 71 74 71 52
49 52 57 59 57 57 57 60 65 67 67 66 66 72 73 75 75 68 58 54 51 48 49 47 48 50 48 55 53 51 54 60 64 66 65 68 64 72 74 72 72 63 52
49 54 55 53 55 57 59 63 66 66 64 66 67 70 73 74 64 58 52 52 50 51 49 48 48 46 50 53 51 53 61 57 61 62 68 67 71 69 70 71 70 66 50
50 54 52 52 56 60 64 65 66 65 65 64 69 75 76 62 54 52 50 48 44 41 42 41 40 46 46 51 54 59 62 62 58 61 65 66 72 72 68 68 65 60 57
48 51 51 54 58 62 66 66 67 65 64 71 81 72 61 52 52 50 46 42 39 39 37 37 37 38 39 49 54 61 60 48 61 66 68 71 74 73 70 59 54 50 52
46 49 52 55 57 60 65 67 69 70 73 82 64 55 52 52 49 46 44 41 38 36 34 32 32 38 39 45 37 39 43 56 71 73 72 73 72 68 53 51 52 56 56
46 49 52 56 60 63 65 66 72 72 73 65 59 57 53 50 49 48 45 41 38 36 34 35 39 39 40 37 38 46 56 71 77 73 70 68 61 50 51 51 52 55 54
46 50 52 58 62 63 64 66 70 73 62 60 59 55 53 54 51 47 44 40 39 37 35 37 35 33 34 37 41 50 63 68 68 66 62 50 48 48 48 46 48 51 53
46 48 52 57 59 59 59 73 65 59 63 59 56 55 57 53 49 45 43 41 38 38 36 35 35 34 38 45 54 60 69 71 65 50 46 46 44 40 39 43 44 50 52
43 46 52 56 57 59 66 61 65 58 56 54 55 57 54 50 47 43 40 38 42 41 41 42 43 45 50 52 61 68 78 68 49 44 46 46 43 43 42 44 46 50 62
43 48 52 53 58 59 62 60 61 59 55 57 59 55 51 46 43 39 39 43 41 41 42 42 47 53 59 63 71 79 71 47 44 45 46 44 44 45 49 50 50 61 82
44 49 52 54 58 60 64 68 63 59 57 58 54 52 49 43 42 39 42 42 40 41 37 42 52 62 66 72 80 71 48 46 47 47 44 43 44 49 46 49 56 74 88
48 51 54 57 59 67 71 65 62 61 61 58 56 51 45 44 40 41 44 42 40 41 42 46 56 68 72 78 75 49 47 47 50 46 45 42 44 47 48 51 62 83 92
50 53 58 62 71 72 67 64 66 63 61 58 50 47 46 42 40 39 40 41 40 40 45 52 61 70 77 77 53 47 47 51 47 44 46 44 43 44 50 55 70 86 94
55 61 67 73 77 74 70 70 67 63 58 52 48 46 42 40 39 34 37 39 38 40 48 53 63 73 72 62 50 46 48 52 46 43 42 44 45 40 47 58 75 87 91
67 69 78 79 81 77 70 68 63 59 54 48 45 41 42 41 39 38 39 39 43 46 52 58 66 68 63 56 50 47 53 49 45 44 43 43 40 39 47 58 68 76 88
74 83 87 84 78 71 66 61 59 52 47 43 42 44 42 41 41 37 36 41 47 51 55 57 60 62 61 61 51 50 54 49 46 46 41 39 39 38 47 56 61 78 88
86 92 87 82 72 63 59 57 51 48 45 46 45 39 38 41 38 38 41 45 52 53 53 52 57 60 59 62 56 54 57 54 50 49 47 41 41 41 46 55 65 78 80
95 91 82 72 63 61 59 53 49 46 46 46 43 41 41 38 38 42 47 54 54 53 50 49 53 59 62 63 57 56 56 57 54 51 51 48 48 47 48 53 58 71 84
88 81 72 65 65 58 52 49 46 47 46 44 42 41 38 40 44 48 51 54 52 52 53 52 52 57 63 63 58 56 52 56 54 55 56 53 50 49 49 52 56 60 75